Location: Hains Lake
(37.8540°N, 99.8578°W)
Time: 01:07:08
(UTC+00:00)

Transit 2A - Pass Details

Date: 25 April 2021
Orbit: 602 x 957 km, 66.7° (Epoch: 14 May)

Event Time Altitude Azimuth Distance (km) Brightness Sun altitude
Rises 11:37:00 0° 190° (S) 3,133 8.9 -3.3°
Reaches altitude 10° 11:39:31 10° 183° (S) 2,159 8.1 -2.9°
Maximum altitude 11:44:05 42° 113° (ESE) 941 7.0 -2.0°
Drops below altitude 10° 11:48:21 10° 43° (NE) 2,011 9.4 -1.2°
Sets 11:50:37 0° 36° (NE) 2,893 10.0 -0.8°
